| time (UTC) | temp F | wind direction | speed knots | gust knots | rain 1hr in | rain 24hr in | rain mn in | humidity % | barometer mb |
| 20260903074527 | 76 | 110 | 4.3 | 9.6 | 0.00 | 0.00 | 0.00 | 92 | 1013.2 |
| 20260903074012 | 76 | 121 | 4.3 | 8.7 | 0.00 | 0.00 | 0.00 | 92 | 1013.2 |
| 20260903073516 | 76 | 128 | 3.5 | 8.7 | 0.00 | 0.00 | 0.00 | 92 | 1013.2 |
| 20260903073043 | 76 | 94 | 4.3 | 9.6 | 0.00 | 0.00 | 0.00 | 91 | 1013.2 |
| 20260903072513 | 76 | 115 | 5.2 | 9.6 | 0.00 | 0.00 | 0.00 | 90 | 1013.3 |
| 20260903072004 | 77 | 125 | 4.3 | 9.6 | 0.00 | 0.00 | 0.00 | 89 | 1013.4 |
| 20260903071510 | 77 | 116 | 4.3 | 9.6 | 0.00 | 0.00 | 0.00 | 88 | 1013.4 |
| 20260903071006 | 78 | 122 | 5.2 | 12.2 | 0.00 | 0.00 | 0.00 | 87 | 1013.5 |
| 20260903070507 | 78 | 121 | 5.2 | 12.2 | 0.00 | 0.00 | 0.00 | 86 | 1013.6 |
| 20260903070016 | 79 | 107 | 7.0 | 15.6 | 0.00 | 0.00 | 0.00 | 84 | 1013.7 |
| 20260903065508 | 79 | 123 | 8.7 | 15.6 | 0.00 | 0.00 | 0.00 | 83 | 1013.6 |
| 20260903065012 | 80 | 124 | 5.2 | 9.6 | 0.00 | 0.00 | 0.00 | 82 | 1013.5 |
| 20260903064526 | 80 | 119 | 3.5 | 9.6 | 0.00 | 0.00 | 0.00 | 81 | 1013.5 |
| 20260903064012 | 80 | 90 | 4.3 | 9.6 | 0.00 | 0.00 | 0.00 | 81 | 1013.5 |
| 20260903063504 | 80 | 107 | 2.6 | 8.7 | 0.00 | 0.00 | 0.00 | 81 | 1013.5 |
| 20260903063004 | 80 | 104 | 4.3 | 8.7 | 0.00 | 0.00 | 0.00 | 80 | 1013.3 |
| 20260903062503 | 81 | 120 | 3.5 | 7.8 | 0.00 | 0.00 | 0.00 | 80 | 1013.4 |
| 20260903062003 | 81 | 124 | 2.6 | 7.8 | 0.00 | 0.00 | 0.00 | 80 | 1013.4 |
| 20260903061512 | 81 | 69 | 3.5 | 7.8 | 0.00 | 0.00 | 0.00 | 79 | 1013.4 |
| 20260903061005 | 81 | 117 | 1.7 | 10.4 | 0.00 | 0.00 | 0.00 | 79 | 1013.5 |
| 20260903060507 | 81 | 136 | 4.3 | 10.4 | 0.00 | 0.00 | 0.00 | 79 | 1013.5 |
| 20260903060018 | 81 | 132 | 5.2 | 11.3 | 0.00 | 0.00 | 0.00 | 79 | 1013.6 |
| 20260903055509 | 81 | 123 | 3.5 | 11.3 | 0.00 | 0.00 | 0.00 | 79 | 1013.6 |
| 20260903055006 | 81 | 110 | 5.2 | 11.3 | 0.00 | 0.00 | 0.00 | 79 | 1013.7 |
| 20260903054523 | 81 | 127 | 6.1 | 11.3 | 0.00 | 0.00 | 0.00 | 79 | 1013.9 |
| 20260903054013 | 81 | 123 | 6.1 | 13.0 | 0.00 | 0.00 | 0.00 | 79 | 1013.8 |
| 20260903053512 | 81 | 120 | 7.8 | 13.0 | 0.00 | 0.00 | 0.00 | 78 | 1013.8 |
| 20260903053027 | 81 | 111 | 3.5 | 9.6 | 0.00 | 0.00 | 0.00 | 78 | 1013.9 |
| 20260903052512 | 81 | 121 | 3.5 | 11.3 | 0.00 | 0.00 | 0.00 | 78 | 1014.0 |
| 20260903052004 | 81 | 122 | 7.0 | 13.0 | 0.00 | 0.00 | 0.00 | 78 | 1014.0 |
| 20260903051506 | 81 | 123 | 6.1 | 13.9 | 0.00 | 0.00 | 0.00 | 78 | 1014.1 |
| 20260903051008 | 81 | 132 | 7.8 | 13.9 | 0.00 | 0.00 | 0.00 | 77 | 1014.1 |
| 20260903050506 | 81 | 98 | 3.5 | 8.7 | 0.00 | 0.00 | 0.00 | 77 | 1014.2 |
| 20260903050012 | 81 | 109 | 1.7 | 8.7 | 0.00 | 0.00 | 0.00 | 76 | 1014.3 |
| 20260903045508 | 81 | 121 | 3.5 | 8.7 | 0.00 | 0.00 | 0.00 | 76 | 1014.4 |
| 20260903045005 | 81 | 97 | 3.5 | 8.7 | 0.00 | 0.00 | 0.00 | 76 | 1014.4 |
| 20260903044518 | 82 | 123 | 0.9 | 12.2 | 0.00 | 0.00 | 0.00 | 75 | 1014.4 |
| 20260903044008 | 82 | 113 | 5.2 | 12.2 | 0.00 | 0.00 | 0.00 | 75 | 1014.3 |
| 20260903043508 | 82 | 107 | 3.5 | 12.2 | 0.00 | 0.00 | 0.00 | 75 | 1014.4 |
| 20260903043023 | 82 | 119 | 6.1 | 12.2 | 0.00 | 0.00 | 0.00 | 74 | 1014.3 |
| 20260903042510 | 82 | 121 | 4.3 | 11.3 | 0.00 | 0.00 | 0.00 | 74 | 1014.3 |
| 20260903042015 | 82 | 117 | 5.2 | 12.2 | 0.00 | 0.00 | 0.00 | 74 | 1014.3 |
| 20260903041529 | 82 | 98 | 7.0 | 12.2 | 0.00 | 0.00 | 0.00 | 73 | 1014.4 |
| 20260903041015 | 83 | 120 | 5.2 | 10.4 | 0.00 | 0.00 | 0.00 | 73 | 1014.4 |
| 20260903040504 | 83 | 134 | 6.1 | 10.4 | 0.00 | 0.00 | 0.00 | 73 | 1014.3 |
| 20260903040009 | 83 | 123 | 4.3 | 13.9 | 0.00 | 0.00 | 0.00 | 72 | 1014.4 |
| 20260903035503 | 83 | 116 | 5.2 | 13.9 | 0.00 | 0.00 | 0.00 | 72 | 1014.3 |
| 20260903035004 | 84 | 127 | 5.2 | 13.9 | 0.00 | 0.00 | 0.00 | 71 | 1014.3 |
| 20260903034519 | 84 | 126 | 5.2 | 11.3 | 0.00 | 0.00 | 0.00 | 71 | 1014.3 |
| 20260903034008 | 84 | 122 | 6.1 | 8.7 | 0.00 | 0.00 | 0.00 | 70 | 1014.3 |
| 20260903033509 | 84 | 113 | 5.2 | 9.6 | 0.00 | 0.00 | 0.00 | 70 | 1014.2 |
| 20260903033018 | 84 | 139 | 4.3 | 9.6 | 0.00 | 0.00 | 0.00 | 70 | 1014.2 |
| 20260903032511 | 84 | 126 | 1.7 | 9.6 | 0.00 | 0.00 | 0.00 | 69 | 1014.2 |
| 20260903032010 | 85 | 123 | 2.6 | 10.4 | 0.00 | 0.00 | 0.00 | 69 | 1014.1 |
| 20260903031528 | 85 | 131 | 4.3 | 10.4 | 0.00 | 0.00 | 0.00 | 68 | 1014.2 |
| 20260903031013 | 85 | 127 | 4.3 | 11.3 | 0.00 | 0.00 | 0.00 | 68 | 1014.1 |
| 20260903030514 | 85 | 115 | 7.0 | 11.3 | 0.00 | 0.00 | 0.00 | 67 | 1014.2 |
| 20260903030031 | 85 | 123 | 5.2 | 10.4 | 0.00 | 0.00 | 0.00 | 67 | 1014.1 |
| 20260903025514 | 86 | 126 | 3.5 | 10.4 | 0.00 | 0.00 | 0.00 | 66 | 1014.1 |
| 20260903025005 | 86 | 161 | 2.6 | 10.4 | 0.00 | 0.00 | 0.00 | 66 | 1014.1 |
| 20260903024511 | 86 | 139 | 1.7 | 9.6 | 0.00 | 0.00 | 0.00 | 66 | 1014.1 |
| 20260903024003 | 86 | 128 | 0.9 | 11.3 | 0.00 | 0.00 | 0.00 | 65 | 1014.1 |
| 20260903023504 | 86 | 169 | 3.5 | 13.9 | 0.00 | 0.00 | 0.00 | 65 | 1014.0 |
| 20260903023014 | 86 | 117 | 7.0 | 13.9 | 0.00 | 0.00 | 0.00 | 64 | 1014.0 |
| 20260903022508 | 87 | 121 | 5.2 | 13.0 | 0.00 | 0.00 | 0.00 | 64 | 1013.9 |
| 20260903022010 | 87 | 116 | 5.2 | 13.0 | 0.00 | 0.00 | 0.00 | 64 | 1013.8 |
| 20260903021523 | 87 | 134 | 6.1 | 12.2 | 0.00 | 0.00 | 0.00 | 63 | 1013.6 |
| 20260903021011 | 88 | 164 | 4.3 | 10.4 | 0.00 | 0.00 | 0.00 | 63 | 1013.6 |
| 20260903020512 | 88 | 143 | 4.3 | 14.8 | 0.00 | 0.00 | 0.00 | 62 | 1013.5 |
| 20260903020036 | 88 | 137 | 6.1 | 14.8 | 0.00 | 0.00 | 0.00 | 62 | 1013.3 |
| 20260903015514 | 89 | 115 | 6.1 | 13.0 | 0.00 | 0.00 | 0.00 | 61 | 1013.3 |
| 20260903015014 | 89 | 134 | 5.2 | 13.0 | 0.00 | 0.00 | 0.00 | 60 | 1013.2 |
| 20260903014529 | 90 | 130 | 3.5 | 11.3 | 0.00 | 0.00 | 0.00 | 60 | 1013.0 |
| 20260903014015 | 90 | 159 | 6.1 | 11.3 | 0.00 | 0.00 | 0.00 | 59 | 1012.9 |
| 20260903013504 | 90 | 139 | 3.5 | 11.3 | 0.00 | 0.00 | 0.00 | 58 | 1012.9 |
| 20260903013016 | 91 | 134 | 2.6 | 11.3 | 0.00 | 0.00 | 0.00 | 57 | 1012.7 |
| 20260903012503 | 91 | 129 | 6.1 | 14.8 | 0.00 | 0.00 | 0.00 | 56 | 1012.7 |
| 20260903012007 | 91 | 124 | 6.1 | 14.8 | 0.00 | 0.00 | 0.00 | 56 | 1012.5 |
| 20260903011518 | 91 | 117 | 3.5 | 13.9 | 0.00 | 0.00 | 0.00 | 55 | 1012.5 |
| 20260903011007 | 91 | 123 | 5.2 | 13.9 | 0.00 | 0.00 | 0.00 | 54 | 1012.5 |
| 20260903010511 | 92 | 116 | 6.1 | 11.3 | 0.00 | 0.00 | 0.00 | 54 | 1012.4 |
| 20260903010025 | 92 | 119 | 3.5 | 11.3 | 0.00 | 0.00 | 0.00 | 54 | 1012.4 |
| 20260903005511 | 92 | 112 | 4.3 | 10.4 | 0.00 | 0.00 | 0.00 | 54 | 1012.4 |
| 20260903005013 | 92 | 101 | 3.5 | 11.3 | 0.00 | 0.00 | 0.00 | 54 | 1012.4 |
| 20260903004533 | 92 | 129 | 6.1 | 11.3 | 0.00 | 0.00 | 0.00 | 53 | 1012.4 |
| 20260903004012 | 93 | 151 | 4.3 | 17.4 | 0.00 | 0.00 | 0.00 | 53 | 1012.4 |
| 20260903003513 | 93 | 113 | 5.2 | 17.4 | 0.00 | 0.00 | 0.00 | 53 | 1012.3 |
| 20260903003030 | 93 | 107 | 5.2 | 12.2 | 0.00 | 0.00 | 0.00 | 53 | 1012.3 |
| 20260903002519 | 93 | 115 | 7.0 | 12.2 | 0.00 | 0.00 | 0.00 | 53 | 1012.2 |
| 20260903002004 | 94 | 119 | 3.5 | 13.0 | 0.00 | 0.00 | 0.00 | 53 | 1012.1 |
| 20260903001515 | 94 | 118 | 7.8 | 13.0 | 0.00 | 0.00 | 0.00 | 52 | 1012.1 |
| 20260903001008 | 94 | 128 | 6.1 | 11.3 | 0.00 | 0.00 | 0.00 | 52 | 1012.1 |
| 20260903000507 | 94 | 119 | 2.6 | 11.3 | 0.00 | 0.00 | 0.00 | 52 | 1012.1 |
| 20260903000022 | 94 | 102 | 4.3 | 11.3 | 0.00 | 0.00 | 0.00 | 52 | 1012.2 |
| 20260902235513 | 94 | 132 | 3.5 | 7.8 | 0.00 | 0.00 | 0.00 | 52 | 1012.2 |
| 20260902235010 | 94 | 123 | 3.5 | 12.2 | 0.00 | 0.00 | 0.00 | 52 | 1012.1 |
| 20260902234528 | 94 | 90 | 5.2 | 12.2 | 0.00 | 0.00 | 0.00 | 53 | 1012.1 |
| 20260902234013 | 94 | 132 | 2.6 | 7.8 | 0.00 | 0.00 | 0.00 | 53 | 1012.0 |
| 20260902233512 | 94 | 118 | 0.9 | 8.7 | 0.00 | 0.00 | 0.00 | 53 | 1012.0 |
| 20260902233027 | 94 | 123 | 0.9 | 9.6 | 0.00 | 0.00 | 0.00 | 53 | 1012.0 |
| 20260902232514 | 94 | 114 | 4.3 | 9.6 | 0.00 | 0.00 | 0.00 | 53 | 1012.0 |
| 20260902232016 | 94 | 90 | 1.7 | 7.8 | 0.00 | 0.00 | 0.00 | 54 | 1012.0 |
| 20260902231530 | 93 | 106 | 2.6 | 7.0 | 0.00 | 0.00 | 0.00 | 55 | 1012.0 |
| 20260902231019 | 93 | 129 | 2.6 | 10.4 | 0.00 | 0.00 | 0.00 | 55 | 1012.1 |
| 20260902230505 | 93 | 85 | 5.2 | 10.4 | 0.00 | 0.00 | 0.00 | 55 | 1012.1 |
| 20260902230019 | 93 | 80 | 4.3 | 8.7 | 0.00 | 0.00 | 0.00 | 54 | 1012.1 |
| 20260902225508 | 92 | 111 | 1.7 | 8.7 | 0.00 | 0.00 | 0.00 | 55 | 1012.0 |
| 20260902225008 | 92 | 84 | 2.6 | 10.4 | 0.00 | 0.00 | 0.00 | 55 | 1012.0 |
| 20260902224523 | 93 | 92 | 4.3 | 11.3 | 0.00 | 0.00 | 0.00 | 55 | 1012.0 |
| 20260902224012 | 95 | 59 | 5.2 | 13.0 | 0.00 | 0.00 | 0.00 | 52 | 1012.1 |
| 20260902223512 | 97 | 125 | 7.0 | 13.0 | 0.00 | 0.00 | 0.00 | 49 | 1012.1 |
| 20260902223048 | 97 | 98 | 3.5 | 9.6 | 0.00 | 0.00 | 0.00 | 49 | 1011.9 |
| 20260902222514 | 98 | 88 | 2.6 | 9.6 | 0.00 | 0.00 | 0.00 | 47 | 1011.9 |
| 20260902222015 | 99 | 96 | 3.5 | 9.6 | 0.00 | 0.00 | 0.00 | 46 | 1011.8 |
| 20260902221532 | 99 | 91 | 2.6 | 9.6 | 0.00 | 0.00 | 0.00 | 46 | 1011.8 |
| 20260902221015 | 98 | 138 | 4.3 | 8.7 | 0.00 | 0.00 | 0.00 | 46 | 1011.9 |
| 20260902220516 | 98 | 58 | 3.5 | 10.4 | 0.00 | 0.00 | 0.00 | 46 | 1011.8 |
| 20260902220030 | 98 | 123 | 3.5 | 10.4 | 0.00 | 0.00 | 0.00 | 46 | 1011.9 |
| 20260902215515 | 99 | 72 | 4.3 | 10.4 | 0.00 | 0.00 | 0.00 | 46 | 1011.8 |
| 20260902215007 | 99 | 47 | 1.7 | 7.8 | 0.00 | 0.00 | 0.00 | 46 | 1012.0 |
| 20260902214520 | 99 | 94 | 1.7 | 11.3 | 0.00 | 0.00 | 0.00 | 45 | 1012.0 |
| 20260902214009 | 99 | 338 | 3.5 | 11.3 | 0.00 | 0.00 | 0.00 | 46 | 1012.0 |
| 20260902213509 | 99 | 120 | 5.2 | 11.3 | 0.00 | 0.00 | 0.00 | 46 | 1012.1 |
| 20260902213022 | 99 | 84 | 4.3 | 8.7 | 0.00 | 0.00 | 0.00 | 45 | 1012.1 |
| 20260902212513 | 98 | 103 | 2.6 | 9.6 | 0.00 | 0.00 | 0.00 | 45 | 1012.1 |
| 20260902212018 | 98 | 105 | 3.5 | 9.6 | 0.00 | 0.00 | 0.00 | 45 | 1012.2 |
| 20260902211526 | 99 | 84 | 3.5 | 9.6 | 0.00 | 0.00 | 0.00 | 45 | 1012.2 |
| 20260902211014 | 99 | 91 | 0.9 | 9.6 | 0.00 | 0.00 | 0.00 | 45 | 1012.2 |
| 20260902210519 | 99 | 113 | 1.7 | 7.0 | 0.00 | 0.00 | 0.00 | 46 | 1012.2 |
| 20260902210031 | 98 | 86 | 0.0 | 7.8 | 0.00 | 0.00 | 0.00 | 46 | 1012.3 |
| 20260902205515 | 98 | 55 | 1.7 | 8.7 | 0.00 | 0.00 | 0.00 | 46 | 1012.4 |
| 20260902205016 | 98 | 9 | 3.5 | 8.7 | 0.00 | 0.00 | 0.00 | 46 | 1012.5 |
| 20260902204541 | 98 | 93 | 3.5 | 8.7 | 0.00 | 0.00 | 0.00 | 46 | 1012.5 |
| 20260902204019 | 98 | 64 | 2.6 | 7.8 | 0.00 | 0.00 | 0.00 | 46 | 1012.6 |
| 20260902203519 | 98 | 52 | 0.9 | 8.7 | 0.00 | 0.00 | 0.00 | 45 | 1012.6 |
| 20260902203024 | 98 | 59 | 1.7 | 8.7 | 0.00 | 0.00 | 0.00 | 45 | 1012.8 |
| 20260902202511 | 98 | 40 | 1.7 | 7.0 | 0.00 | 0.00 | 0.00 | 46 | 1012.8 |
| 20260902202012 | 98 | 351 | 0.9 | 7.0 | 0.00 | 0.00 | 0.00 | 47 | 1012.9 |
| 20260902201528 | 98 | 61 | 2.6 | 8.7 | 0.00 | 0.00 | 0.00 | 46 | 1013.0 |
| 20260902201012 | 98 | 92 | 0.9 | 9.6 | 0.00 | 0.00 | 0.00 | 46 | 1013.2 |
| 20260902200514 | 98 | 92 | 4.3 | 9.6 | 0.00 | 0.00 | 0.00 | 46 | 1013.3 |
| 20260902200028 | 98 | 70 | 2.6 | 7.0 | 0.00 | 0.00 | 0.00 | 46 | 1013.4 |
| 20260902195515 | 98 | 37 | 1.7 | 5.2 | 0.00 | 0.00 | 0.00 | 47 | 1013.5 |
| 20260902195015 | 97 | 67 | 2.6 | 7.8 | 0.00 | 0.00 | 0.00 | 48 | 1013.5 |
| 20260902194531 | 97 | 334 | 1.7 | 7.8 | 0.00 | 0.00 | 0.00 | 48 | 1013.7 |
| 20260902194018 | 97 | 329 | 2.6 | 8.7 | 0.00 | 0.00 | 0.00 | 48 | 1013.7 |
| 20260902193519 | 97 | 61 | 2.6 | 8.7 | 0.00 | 0.00 | 0.00 | 48 | 1013.8 |
| 20260902193034 | 97 | 313 | 2.6 | 8.7 | 0.00 | 0.00 | 0.00 | 47 | 1013.8 |
| 20260902192518 | 97 | 5 | 2.6 | 7.8 | 0.00 | 0.00 | 0.00 | 47 | 1013.9 |
| 20260902192003 | 97 | 65 | 0.9 | 7.0 | 0.00 | 0.00 | 0.00 | 47 | 1014.0 |
| 20260902191504 | 97 | 90 | 1.7 | 8.7 | 0.00 | 0.00 | 0.00 | 47 | 1014.1 |
| 20260902191004 | 97 | 123 | 1.7 | 9.6 | 0.00 | 0.00 | 0.00 | 48 | 1014.1 |
| 20260902190505 | 97 | 137 | 3.5 | 9.6 | 0.00 | 0.00 | 0.00 | 48 | 1014.1 |
| 20260902190007 | 96 | 128 | 1.7 | 6.1 | 0.00 | 0.00 | 0.00 | 49 | 1014.2 |
| 20260902185503 | 96 | 23 | 0.0 | 10.4 | 0.00 | 0.00 | 0.00 | 48 | 1014.3 |
| 20260902185004 | 96 | 138 | 4.3 | 10.4 | 0.00 | 0.00 | 0.00 | 49 | 1014.4 |
| 20260902184508 | 95 | 62 | 2.6 | 8.7 | 0.00 | 0.00 | 0.00 | 49 | 1014.5 |
| 20260902184004 | 95 | 105 | 0.0 | 7.8 | 0.00 | 0.00 | 0.00 | 51 | 1014.5 |
| 20260902183504 | 95 | 86 | 3.5 | 7.8 | 0.00 | 0.00 | 0.00 | 50 | 1014.7 |
| 20260902183011 | 96 | 44 | 2.6 | 7.0 | 0.00 | 0.00 | 0.00 | 50 | 1014.8 |
| 20260902182504 | 95 | 122 | 0.9 | 7.8 | 0.00 | 0.00 | 0.00 | 50 | 1015.0 |
| 20260902182002 | 95 | 115 | 0.9 | 7.8 | 0.00 | 0.00 | 0.00 | 50 | 1015.0 |
| 20260902181504 | 96 | 96 | 2.6 | 7.8 | 0.00 | 0.00 | 0.00 | 51 | 1015.2 |
| 20260902181003 | 95 | 123 | 0.9 | 8.7 | 0.00 | 0.00 | 0.00 | 51 | 1015.2 |
| 20260902180505 | 95 | 82 | 2.6 | 8.7 | 0.00 | 0.00 | 0.00 | 51 | 1015.4 |
| 20260902180007 | 95 | 122 | 2.6 | 7.0 | 0.00 | 0.00 | 0.00 | 51 | 1015.5 |
| 20260902175504 | 95 | 108 | 2.6 | 8.7 | 0.00 | 0.00 | 0.00 | 50 | 1015.7 |
| 20260902175004 | 94 | 109 | 4.3 | 8.7 | 0.00 | 0.00 | 0.00 | 53 | 1015.8 |
| 20260902174511 | 94 | 153 | 2.6 | 8.7 | 0.00 | 0.00 | 0.00 | 53 | 1015.9 |
| 20260902174003 | 94 | 130 | 2.6 | 7.8 | 0.00 | 0.00 | 0.00 | 54 | 1016.0 |
| 20260902173504 | 94 | 122 | 2.6 | 9.6 | 0.00 | 0.00 | 0.00 | 54 | 1016.0 |
| 20260902173006 | 94 | 119 | 2.6 | 9.6 | 0.00 | 0.00 | 0.00 | 56 | 1016.1 |
| 20260902172505 | 93 | 124 | 0.9 | 6.1 | 0.00 | 0.00 | 0.00 | 56 | 1016.1 |
| 20260902172004 | 92 | 119 | 0.0 | 6.1 | 0.00 | 0.00 | 0.00 | 58 | 1016.2 |
| 20260902171506 | 92 | 323 | 1.7 | 6.1 | 0.00 | 0.00 | 0.00 | 58 | 1016.4 |
| 20260902171003 | 93 | 56 | 2.6 | 6.1 | 0.00 | 0.00 | 0.00 | 58 | 1016.5 |
| 20260902170502 | 92 | 306 | 0.0 | 3.5 | 0.00 | 0.00 | 0.00 | 60 | 1016.5 |
| 20260902170005 | 91 | 88 | 0.0 | 7.0 | 0.00 | 0.00 | 0.00 | 60 | 1016.6 |
| 20260902165502 | 91 | 88 | 1.7 | 7.0 | 0.00 | 0.00 | 0.00 | 60 | 1016.7 |
| 20260902165004 | 91 | 99 | 0.0 | 7.0 | 0.00 | 0.00 | 0.00 | 60 | 1016.8 |
| 20260902164505 | 91 | 86 | 0.9 | 7.0 | 0.00 | 0.00 | 0.00 | 60 | 1016.8 |
| 20260902164003 | 91 | 109 | 0.0 | 6.1 | 0.00 | 0.00 | 0.00 | 63 | 1016.9 |
| 20260902163504 | 90 | 95 | 0.9 | 5.2 | 0.00 | 0.00 | 0.00 | 62 | 1016.8 |
| 20260902163005 | 90 | 129 | 0.9 | 6.1 | 0.00 | 0.00 | 0.00 | 63 | 1016.9 |
| 20260902162504 | 90 | 105 | 0.9 | 6.1 | 0.00 | 0.00 | 0.00 | 63 | 1016.8 |
| 20260902162004 | 90 | 96 | 0.0 | 4.3 | 0.00 | 0.00 | 0.00 | 62 | 1017.0 |
| 20260902161511 | 91 | 53 | 0.0 | 4.3 | 0.00 | 0.00 | 0.00 | 62 | 1017.0 |
| 20260902161004 | 91 | 51 | 0.0 | 4.3 | 0.00 | 0.00 | 0.00 | 63 | 1017.0 |
| 20260902160505 | 91 | 51 | 0.9 | 4.3 | 0.00 | 0.00 | 0.00 | 63 | 1017.0 |
| 20260902160010 | 91 | 178 | 0.0 | 2.6 | 0.00 | 0.00 | 0.00 | 64 | 1017.0 |
| 20260902155505 | 90 | 175 | 0.0 | 2.6 | 0.00 | 0.00 | 0.00 | 64 | 1017.0 |
| 20260902155002 | 90 | 287 | 0.0 | 2.6 | 0.00 | 0.00 | 0.00 | 64 | 1017.1 |
| 20260902154503 | 90 | 148 | 0.0 | 6.1 | 0.00 | 0.00 | 0.00 | 64 | 1017.0 |
| 20260902154003 | 90 | 142 | 0.9 | 7.0 | 0.00 | 0.00 | 0.00 | 64 | 1017.0 |
| 20260902153503 | 90 | 153 | 0.9 | 7.0 | 0.00 | 0.00 | 0.00 | 65 | 1017.0 |
| 20260902153005 | 89 | 136 | 0.0 | 3.5 | 0.00 | 0.00 | 0.00 | 65 | 1016.9 |
| 20260902152504 | 90 | 134 | 0.9 | 3.5 | 0.00 | 0.00 | 0.00 | 65 | 1016.9 |
| 20260902152003 | 89 | 134 | 0.0 | 6.1 | 0.00 | 0.00 | 0.00 | 66 | 1016.9 |
| 20260902151509 | 89 | 135 | 0.0 | 7.0 | 0.00 | 0.00 | 0.00 | 66 | 1016.9 |
| 20260902151004 | 88 | 158 | 0.0 | 7.0 | 0.00 | 0.00 | 0.00 | 68 | 1016.9 |
| 20260902150504 | 88 | 121 | 0.9 | 6.1 | 0.00 | 0.00 | 0.00 | 68 | 1016.8 |
| 20260902150010 | 88 | 133 | 0.0 | 4.3 | 0.00 | 0.00 | 0.00 | 70 | 1016.8 |
| 20260902145506 | 87 | 126 | 0.9 | 4.3 | 0.00 | 0.00 | 0.00 | 69 | 1016.8 |
| 20260902145006 | 88 | 87 | 0.9 | 4.3 | 0.00 | 0.00 | 0.00 | 68 | 1016.9 |
| 20260902144510 | 88 | 128 | 1.7 | 4.3 | 0.00 | 0.00 | 0.00 | 68 | 1016.8 |
| 20260902144004 | 88 | 142 | 0.0 | 4.3 | 0.00 | 0.00 | 0.00 | 68 | 1016.8 |
| 20260902143502 | 88 | 143 | 0.0 | 4.3 | 0.00 | 0.00 | 0.00 | 68 | 1016.7 |
| 20260902143005 | 88 | 162 | 0.0 | 1.7 | 0.00 | 0.00 | 0.00 | 69 | 1016.7 |
| 20260902142504 | 87 | 155 | 0.0 | 4.3 | 0.00 | 0.00 | 0.00 | 69 | 1016.7 |
| 20260902142002 | 87 | 155 | 0.0 | 4.3 | 0.00 | 0.00 | 0.00 | 70 | 1016.7 |
| 20260902141505 | 87 | 155 | 0.0 | 5.2 | 0.00 | 0.00 | 0.00 | 70 | 1016.7 |
| 20260902141008 | 87 | 128 | 1.7 | 5.2 | 0.00 | 0.00 | 0.00 | 70 | 1016.8 |
| 20260902140503 | 86 | 182 | 0.0 | 4.3 | 0.00 | 0.00 | 0.00 | 71 | 1016.7 |
| 20260902140010 | 86 | 180 | 0.0 | 4.3 | 0.00 | 0.00 | 0.00 | 72 | 1016.7 |
| 20260902135504 | 85 | 146 | 0.0 | 4.3 | 0.00 | 0.00 | 0.00 | 73 | 1016.6 |
| 20260902135010 | 85 | 158 | 0.9 | 5.2 | 0.00 | 0.00 | 0.00 | 74 | 1016.6 |
| 20260902134513 | 84 | 160 | 0.0 | 7.0 | 0.00 | 0.00 | 0.00 | 74 | 1016.5 |
| 20260902134006 | 83 | 127 | 0.9 | 7.0 | 0.00 | 0.00 | 0.00 | 75 | 1016.5 |
| 20260902133503 | 83 | 119 | 2.6 | 7.0 | 0.00 | 0.00 | 0.00 | 74 | 1016.5 |
| 20260902133013 | 83 | 130 | 1.7 | 4.3 | 0.00 | 0.00 | 0.00 | 74 | 1016.5 |
| 20260902132509 | 83 | 134 | 0.0 | 4.3 | 0.00 | 0.00 | 0.00 | 75 | 1016.5 |
| 20260902132002 | 82 | 130 | 0.9 | 6.1 | 0.00 | 0.00 | 0.00 | 75 | 1016.5 |
| 20260902131502 | 82 | 121 | 0.0 | 7.8 | 0.00 | 0.00 | 0.00 | 76 | 1016.5 |
| 20260902131004 | 81 | 130 | 2.6 | 7.8 | 0.00 | 0.00 | 0.00 | 76 | 1016.5 |
| 20260902130503 | 81 | 106 | 2.6 | 7.0 | 0.00 | 0.00 | 0.00 | 76 | 1016.5 |
| 20260902130009 | 81 | 115 | 2.6 | 7.8 | 0.00 | 0.00 | 0.00 | 77 | 1016.4 |
| 20260902125503 | 80 | 118 | 4.3 | 7.8 | 0.00 | 0.00 | 0.00 | 78 | 1016.4 |
| 20260902125004 | 80 | 146 | 0.0 | 7.0 | 0.00 | 0.00 | 0.00 | 79 | 1016.3 |
| 20260902124514 | 79 | 161 | 0.0 | 4.3 | 0.00 | 0.00 | 0.00 | 80 | 1016.3 |
| 20260902124011 | 79 | 174 | 0.0 | 2.6 | 0.00 | 0.00 | 0.00 | 81 | 1016.3 |
| 20260902123506 | 78 | 174 | 0.0 | 0.9 | 0.00 | 0.00 | 0.00 | 82 | 1016.3 |
| 20260902123014 | 78 | 174 | 0.0 | 4.3 | 0.00 | 0.00 | 0.00 | 83 | 1016.2 |
| 20260902122507 | 78 | 174 | 0.0 | 4.3 | 0.00 | 0.00 | 0.00 | 83 | 1016.2 |
| 20260902122007 | 77 | 189 | 0.0 | 3.5 | 0.00 | 0.00 | 0.00 | 83 | 1016.2 |
| 20260902121516 | 77 | 190 | 0.0 | 1.7 | 0.00 | 0.00 | 0.00 | 83 | 1016.2 |
| 20260902121008 | 77 | 190 | 0.0 | 0.9 | 0.00 | 0.00 | 0.00 | 82 | 1016.2 |
| 20260902120503 | 77 | 190 | 0.0 | 0.9 | 0.00 | 0.00 | 0.00 | 82 | 1016.2 |
| 20260902120004 | 78 | 190 | 0.0 | 0.0 | 0.00 | 0.00 | 0.00 | 82 | 1016.2 |
| 20260902115503 | 78 | 190 | 0.0 | 0.9 | 0.00 | 0.00 | 0.00 | 82 | 1016.1 |
| 20260902115003 | 78 | 190 | 0.0 | 0.9 | 0.00 | 0.00 | 0.00 | 82 | 1016.2 |
| 20260902114508 | 78 | 190 | 0.0 | 0.9 | 0.00 | 0.00 | 0.00 | 82 | 1016.3 |
| 20260902114004 | 78 | 190 | 0.0 | 1.7 | 0.00 | 0.00 | 0.00 | 83 | 1016.3 |
| 20260902113508 | 78 | 190 | 0.0 | 1.7 | 0.00 | 0.00 | 0.00 | 83 | 1016.3 |
| 20260902113014 | 78 | 190 | 0.0 | 0.9 | 0.00 | 0.00 | 0.00 | 83 | 1016.3 |
| 20260902112507 | 78 | 190 | 0.0 | 0.0 | 0.00 | 0.00 | 0.00 | 83 | 1016.3 |
| 20260902112008 | 78 | 190 | 0.0 | 0.0 | 0.00 | 0.00 | 0.00 | 83 | 1016.3 |
| 20260902111520 | 78 | 190 | 0.0 | 0.0 | 0.00 | 0.00 | 0.00 | 83 | 1016.3 |
| 20260902111006 | 78 | 190 | 0.0 | 0.0 | 0.00 | 0.00 | 0.00 | 83 | 1016.2 |
| 20260902110508 | 78 | 190 | 0.0 | 0.0 | 0.00 | 0.00 | 0.00 | 83 | 1016.2 |
| 20260902110035 | 78 | 190 | 0.0 | 0.0 | 0.00 | 0.00 | 0.00 | 83 | 1016.2 |
| 20260902105508 | 78 | 190 | 0.0 | 0.0 | 0.00 | 0.00 | 0.00 | 83 | 1016.2 |
| 20260902105004 | 78 | 190 | 0.0 | 0.0 | 0.00 | 0.00 | 0.00 | 82 | 1016.1 |
| 20260902104515 | 78 | 190 | 0.0 | 0.0 | 0.00 | 0.00 | 0.00 | 82 | 1016.1 |
| 20260902104002 | 78 | 190 | 0.0 | 0.0 | 0.00 | 0.00 | 0.00 | 81 | 1016.2 |
| 20260902103503 | 79 | 190 | 0.0 | 0.0 | 0.00 | 0.00 | 0.00 | 81 | 1016.1 |
| 20260902103026 | 79 | 190 | 0.0 | 0.0 | 0.00 | 0.00 | 0.00 | 81 | 1016.1 |
| 20260902102506 | 79 | 190 | 0.0 | 0.0 | 0.00 | 0.00 | 0.00 | 80 | 1016.2 |
| 20260902102008 | 79 | 190 | 0.0 | 0.0 | 0.00 | 0.00 | 0.00 | 80 | 1016.2 |
| 20260902101520 | 79 | 190 | 0.0 | 0.0 | 0.00 | 0.00 | 0.00 | 79 | 1016.1 |
| 20260902101008 | 79 | 190 | 0.0 | 0.0 | 0.00 | 0.00 | 0.00 | 79 | 1016.2 |
| 20260902100508 | 79 | 190 | 0.0 | 0.0 | 0.00 | 0.00 | 0.00 | 79 | 1016.2 |
| 20260902100020 | 80 | 190 | 0.0 | 0.0 | 0.00 | 0.00 | 0.00 | 79 | 1016.2 |
| 20260902095510 | 80 | 190 | 0.0 | 0.0 | 0.00 | 0.00 | 0.00 | 79 | 1016.2 |
| 20260902095008 | 80 | 190 | 0.0 | 0.0 | 0.00 | 0.00 | 0.00 | 79 | 1016.2 |
| 20260902094522 | 80 | 190 | 0.0 | 0.0 | 0.00 | 0.00 | 0.00 | 79 | 1016.2 |
| 20260902094008 | 80 | 190 | 0.0 | 0.0 | 0.00 | 0.00 | 0.00 | 79 | 1016.1 |
| 20260902093505 | 80 | 190 | 0.0 | 0.0 | 0.00 | 0.00 | 0.00 | 79 | 1016.1 |
| 20260902093010 | 81 | 190 | 0.0 | 0.0 | 0.00 | 0.00 | 0.00 | 78 | 1016.1 |
| 20260902092503 | 81 | 190 | 0.0 | 0.0 | 0.00 | 0.00 | 0.00 | 78 | 1016.1 |
| 20260902092006 | 81 | 190 | 0.0 | 0.0 | 0.00 | 0.00 | 0.00 | 77 | 1015.9 |
| 20260902091516 | 81 | 190 | 0.0 | 0.0 | 0.00 | 0.00 | 0.00 | 76 | 1015.9 |
| 20260902091006 | 81 | 190 | 0.0 | 0.0 | 0.00 | 0.00 | 0.00 | 75 | 1015.9 |
| 20260902090509 | 81 | 190 | 0.0 | 0.0 | 0.00 | 0.00 | 0.00 | 74 | 1015.9 |
| 20260902090026 | 81 | 190 | 0.0 | 0.0 | 0.00 | 0.00 | 0.00 | 74 | 1015.9 |
| 20260902085508 | 82 | 190 | 0.0 | 0.0 | 0.00 | 0.00 | 0.00 | 74 | 1015.8 |
| 20260902085011 | 82 | 190 | 0.0 | 0.0 | 0.00 | 0.00 | 0.00 | 73 | 1015.8 |
| 20260902084526 | 82 | 190 | 0.0 | 0.0 | 0.00 | 0.00 | 0.00 | 73 | 1015.8 |
| 20260902084009 | 82 | 190 | 0.0 | 0.9 | 0.00 | 0.00 | 0.00 | 73 | 1015.8 |
| 20260902083510 | 82 | 190 | 0.0 | 0.9 | 0.00 | 0.00 | 0.00 | 73 | 1015.8 |
| 20260902083023 | 82 | 190 | 0.0 | 0.9 | 0.00 | 0.00 | 0.00 | 73 | 1015.8 |
| 20260902082508 | 82 | 190 | 0.0 | 0.0 | 0.00 | 0.00 | 0.00 | 73 | 1015.8 |
| 20260902082003 | 83 | 190 | 0.0 | 0.0 | 0.00 | 0.00 | 0.00 | 73 | 1015.9 |
| 20260902081509 | 83 | 190 | 0.0 | 0.0 | 0.00 | 0.00 | 0.00 | 72 | 1015.8 |
| 20260902081006 | 83 | 190 | 0.0 | 0.0 | 0.00 | 0.00 | 0.00 | 73 | 1015.9 |
| 20260902080508 | 83 | 190 | 0.0 | 0.9 | 0.00 | 0.00 | 0.00 | 73 | 1015.9 |
| 20260902080021 | 83 | 190 | 0.0 | 0.9 | 0.00 | 0.00 | 0.00 | 72 | 1015.9 |
| 20260902075508 | 83 | 190 | 0.0 | 1.7 | 0.00 | 0.00 | 0.00 | 72 | 1015.8 |
| 20260902075013 | 83 | 185 | 0.0 | 1.7 | 0.00 | 0.00 | 0.00 | 72 | 1015.8 |